SITRO-AIS 9 (SHCHUKIN)

Last updated on Mon Sep 21 2026 00:03:45 GMT+0000 (Coordinated Universal Time)

1 57201U 23091AM 26263.61210847 .00016000 00000+0 38489-3 0 9999 2 57201 97.4988 336.2715 0007417 92.5371 267.6724 15.41358465179435
UTC large
Height (km)
Speed (km/s)
/
Latitude / Longitude
Inclination (degrees)
Orbital Period (minutes)
Azimuth
Elevation
Range (km)
Doppler Factor

Next 0 passes for location: London (51.5072 / 0.1276)

No passes found over London.
SITRO-AIS 9 (SHCHUKIN)